Change the Weather History Date:

Friday, June 15, 2012

  Actual Average Record
Temperature  
Mean Temperature 76 °F 75 °F  
Max Temperature 93 °F 86 °F 100 °F (1952)
Min Temperature 58 °F 64 °F 49 °F (1917)
Degree Days  
Heating Degree Days 0 0  
Month to date heating degree days 9 4  
Since 1 June heating degree days 9 4  
Since 1 July heating degree days 3482 4545  
Cooling Degree Days 11 10  
Month to date cooling degree days 98 123  
Year to date cooling degree days 433 258  
Since 1 June cooling degree days 98 123  
Growing Degree Days 25 (Base 50)    
Moisture  
Dew Point 59 °F    
Average Humidity 55    
Maximum Humidity 78    
Minimum Humidity 32    
Precipitation  
Precipitation 0.00 in 0.11 in 4.71 in (1900)
Month to date precipitation 0.11 2.07  
Year to date precipitation 11.49 22.31  
Snow  
Snow 0.00 in 0.00 in - ()
Month to date snowfall 0.0 0.0  
Since 1 June snowfall 0.0 0.0  
Since 1 July snowfall 0.5 11.8  
Snow Depth 0.00 in    
Sea Level Pressure  
Sea Level Pressure 30.05 in    
Wind  
Wind Speed 5 mph (ESE)    
Max Wind Speed 12 mph    
Max Gust Speed 15 mph    
Visibility 10 miles    
Events      
T = Trace of Precipitation, MM = Missing Value Source: NWS Daily Summary

Daily Weather History Graph

Daily Weather History Graph

Search for Another Location

Airport or City:

Trip Planner

Search our weather history database for the weather conditions in past years. The results will help you decide how hot, cold, wet, or windy it might be!

Date:

Astronomy

Jun. 15, 2012 Rise Set
Actual Time 5:26 AM CDT 8:14 PM CDT
Civil Twilight 4:55 AM CDT 8:46 PM CDT
Nautical Twilight 4:15 AM CDT 9:25 PM CDT
Astronomical Twilight 3:31 AM CDT 10:10 PM CDT
Moon 2:38 AM CDT (6/15) 4:55 PM CDT (6/15)
Length of Visible Light 15h 50m
Length of Day
14h 47m
Waning Crescent, 13% of the Moon is Illuminated
Jun 15
Waning Crescent
Jun 19
New
Jun 26
First Quarter
Jul 3
Full
Jul 10
Last Quarter

Hourly Weather History & Observations

Time (CDT) Temp. Heat Index Dew Point Humidity Pressure Visibility Wind Dir Wind Speed Gust Speed Precip Events Conditions
12:54 AM 64.0 °F - 55.0 °F 73% 30.03 in 10.0 mi ENE 4.6 mph - N/A   Clear
1:54 AM 63.0 °F - 55.0 °F 75% 30.03 in 10.0 mi NE 4.6 mph - N/A   Clear
2:54 AM 63.0 °F - 54.0 °F 72% 30.04 in 10.0 mi ENE 5.8 mph - N/A   Clear
3:54 AM 62.1 °F - 54.0 °F 75% 30.05 in 10.0 mi Calm Calm - N/A   Clear
4:54 AM 60.1 °F - 54.0 °F 80% 30.07 in 10.0 mi Calm Calm - N/A   Clear
5:54 AM 61.0 °F - 54.0 °F 78% 30.09 in 10.0 mi ENE 4.6 mph - N/A   Clear
6:54 AM 64.9 °F - 55.9 °F 73% 30.09 in 10.0 mi ENE 3.5 mph - N/A   Clear
7:54 AM 71.1 °F - 55.0 °F 57% 30.09 in 10.0 mi ESE 4.6 mph - N/A   Clear
8:54 AM 78.1 °F - 57.0 °F 48% 30.09 in 10.0 mi Variable 3.5 mph - N/A   Clear
9:54 AM 82.0 °F 82.4 °F 60.1 °F 47% 30.09 in 10.0 mi Calm Calm - N/A   Clear
10:54 AM 84.9 °F 85.0 °F 61.0 °F 44% 30.08 in 10.0 mi Calm Calm - N/A   Clear
11:54 AM 89.1 °F 88.2 °F 59.0 °F 36% 30.06 in 10.0 mi SSE 5.8 mph - N/A   Clear
12:54 PM 91.0 °F 90.5 °F 60.1 °F 35% 30.05 in 10.0 mi SW 6.9 mph - N/A   Clear
1:54 PM 91.9 °F 91.2 °F 59.0 °F 33% 30.04 in 10.0 mi SSE 9.2 mph - N/A   Clear
2:54 PM 91.9 °F 91.2 °F 59.0 °F 33% 30.05 in 10.0 mi ESE 6.9 mph - N/A   Partly Cloudy
3:54 PM 91.9 °F 90.8 °F 57.9 °F 32% 30.03 in 10.0 mi SE 8.1 mph - N/A   Scattered Clouds
4:54 PM 91.9 °F 90.8 °F 57.9 °F 32% 30.03 in 10.0 mi Variable 6.9 mph - N/A   Clear
5:54 PM 91.0 °F 90.5 °F 60.1 °F 35% 30.01 in 10.0 mi SE 5.8 mph - N/A   Clear
6:54 PM 89.1 °F 89.0 °F 61.0 °F 39% 30.01 in 10.0 mi East 6.9 mph - N/A   Clear
7:54 PM 84.9 °F 85.4 °F 62.1 °F 46% 30.02 in 10.0 mi SE 4.6 mph - N/A   Clear
8:54 PM 82.9 °F 84.0 °F 63.0 °F 51% 30.04 in 10.0 mi SE 3.5 mph - N/A   Clear
9:54 PM 80.1 °F 82.1 °F 66.0 °F 62% 30.05 in 10.0 mi SE 5.8 mph - N/A   Clear
10:54 PM 78.1 °F - 66.9 °F 68% 30.06 in 10.0 mi Calm Calm - N/A   Clear
11:54 PM 77.0 °F - 64.9 °F 66% 30.06 in 10.0 mi SSE 5.8 mph - N/A   Clear